カタログに戻る

STARLINK-37581

運用中通信VLEO
NORAD 69366·PAYLOAD·🇺🇸 United States

打ち上げ Jun 4, 2026 から Cape Canaveral Space Force Station

Loading…

次のパス (今後24時間)

TLE

最新Source: CelesTrak SupGP

元期: Sep 14, 2026, 23:28 UTC

1 69366C 26123P   26257.97826389 -.00027002  00000+0 -79805-3 0  2579
2 69366  53.1578 167.5794 0001258  75.9003 207.3350 15.34392863    15

AllMySatでSTARLINK-37581をリアルタイム追跡

Download on the App Store